{"data":{"norad_id":56287,"epoch":"2026-05-25T05:24:18.493920Z","epoch_age_seconds":55564,"freshness":"FRESH","line1":"1 56287U 23056B   26145.22521405  .00001795  00000+0  74738-4 0  9997","line2":"2 56287  43.0016 118.9206 0000760 254.8277 105.2490 15.27575815172006","mean_motion":15.27575815,"eccentricity":7.6e-5,"inclination_deg":43.0016,"raan_deg":118.9206,"arg_perigee_deg":254.8277,"mean_anomaly_deg":105.249,"bstar":7.4738e-5,"rev_number":17200,"period_min":94.267006970125,"perigee_km":482.54017636812,"apogee_km":483.5830785595,"semimajor_km":6861.1986274638,"source":"CELESTRAK","updated_at":"2026-05-25T13:38:17.964193Z"}}